Location: Hookston
(37.9413°N, 122.0527°W)
Time: 15:53:17
(UTC+00:00)

ISS - Pass Details

Date: 23 July 2024
Orbit: 416 x 419 km, 51.6° (Epoch: 18 May)

Event Time Altitude Azimuth Distance (km) Brightness Sun altitude
Rises 06:11:08 0° 308° (NW) 2,358 1.2 -25.2°
Reaches altitude 10° 06:13:13 10° 307° (NW) 1,493 -0.1 -25.4°
Enters shadow 06:14:54 27° 304° (WNW) 834 -1.7 -25.6°
